Tracking 35274 objects as of 11-Sep-2026
HD Live streaming from Space Station
objects crossing your sky now

COSMOS 1945 DEB


COSMOS 1945 DEB is no longer on orbit


NORAD ID: 19201
Int'l Code: 1988-042E
Launch date: May 19, 1988
Source: Commonwealth of Independent States (former USSR) (CIS)
Launch site: TYURATAM MISSILE AND SPACE COMPLEX (TTMTR)
Decay date: 1988-06-10

Note: This is SATELLITE DEBRIS
Your satellite tracking list
Your tracking list is empty




NASA's NSSDC Master Catalog

Two Line Element Set (TLE):
1 19201U 88042  E 88162.31548479 -.25879201 +17200-4 -13732-3 0  9990
2 19201 070.3466 354.5126 0005138 234.6021 125.8312 16.55287847003549
Source of the keplerian elements: AFSPC